Preview of NWS' New Version of Forecast
This preview is not operational and should not be used for support decisions.

Regional Weather Roundup (RWR)

Issued by National Weather Service (NWS)

                            
000
ASUS43 KDMX 181701
RWRIA 

WEATHER ROUNDUP FOR IOWA
NATIONAL WEATHER SERVICE DES MOINES IA
1200 PM CDT THU APR 18 2019

NOTE: "FAIR" INDICATES FEW OR NO CLOUDS BELOW 12,000 FEET WITH NO
SIGNIFICANT WEATHER AND/OR OBSTRUCTIONS TO VISIBILITY.

* - THESE STATIONS ARE NOT NWS STATIONS...THUS NOT UNDER NWS
QUALITY CONTROL.  THEY ALSO DO NOT REPORT WEATHER SUCH 
AS PRECIPITATION OR FOG.  

IAZ001>003-012>014-020>022-031>034-043>046-181800-
   NORTHWEST IOWA
  
CITY           SKY/WX    TMP DP  RH WIND       PRES   REMARKS
CARROLL *      CLOUDY    59  50  72 NW18      29.87S                  
CHEROKEE *     CLOUDY    48  42  79 NW13      29.91R                  
DENISON *      CLOUDY    50  41  71 NW17      29.91S                  
LE MARS *      CLOUDY    46  45  93 NW10G16   29.92R                  
SHELDON *      LGT RAIN  45  45 100 N10       29.90R                  
SIOUX CITY     PTSUNNY   55  43  63 NW17      29.91S                  
SPENCER        CLOUDY    49  39  68 NW14      29.89R                  
STORM LAKE *     N/A     48  43  81 NW13G20   29.86R                  
$$
 
IAZ055>058-069>071-079>083-090>094-181800-
   SOUTHWEST IOWA
  
CITY           SKY/WX    TMP DP  RH WIND       PRES   REMARKS
ATLANTIC *     PTSUNNY   52  43  71 NW17G23   29.87F                  
AUDUBON *      CLOUDY    52  43  71 CALM      29.88F                  
CLARINDA *     CLOUDY    52  41  66 N18       29.91S                  
COUNCIL BLFS * CLOUDY    50  45  81 NW12G20   29.90F                  
CRESTON *      CLOUDY    50  39  66 NW22      29.85S                  
HARLAN  *      CLOUDY    48  43  81 NW12      29.90S                  
LAMONI         CLOUDY    52  38  58 NW14G25   29.84S                  
RED OAK *      CLOUDY    54  43  66 N13G20    29.89F                  
SHENANDOAH *   PTSUNNY   55  41  58 N18       29.89F                  
$$
 
IAZ047>049-059>061-072>074-084-181800-
   CENTRAL IOWA
  
CITY           SKY/WX    TMP DP  RH WIND       PRES   REMARKS
AMES           PTSUNNY   51  38  60 N17       29.84R                  
ANKENY *       PTSUNNY   54  39  58 N21G28    29.85S                  
BOONE *        CLOUDY    52  39  62 N22G30    29.84S                  
CHARITON *     PTSUNNY   52  39  62 N20G28    29.81F                  
DES MOINES     PTSUNNY   54  37  52 N18G31    29.83S                  
GRINNELL*      CLOUDY    47  39  72 NW22G29   29.82R                  
KNOXVILLE *    CLOUDY    50  39  66 NW22G30   29.81F                  
MARSHALLTOWN   CLOUDY    48  38  68 N21G29    29.81R                  
NEWTON *       CLOUDY    48  39  71 N18G25    29.83R                  
PELLA *        PTSUNNY   49  38  65 N12G18    29.84R                  
PERRY *        CLOUDY    51  40  65 N21       29.86S                  
$$
 
IAZ004>006-015-016-023>025-035-036-181800-
   NORTH CENTRAL IOWA
  
CITY           SKY/WX    TMP DP  RH WIND       PRES   REMARKS
ALGONA *       CLOUDY    48  41  76 N15G21    29.86R                  
CLARION *        N/A     50  39  66 N17G26    29.85R                  
ESTHERVILLE    CLOUDY    45  39  79 N16       29.88R                  
FORT DODGE *   CLOUDY    49  39  68 N13G18    29.87R                  
MASON CITY     CLOUDY    47  40  76 NW21G29   29.83R                  
FOREST CITY *  CLOUDY    48  37  66 N18G25    29.84R                  
IOWA FALLS *   CLOUDY    48  40  73 NW21G26   29.84R                  
$$

IAZ007>011-017>019-026>030-037>042-050>054-066-181800-
   NORTHEAST IOWA
  
CITY           SKY/WX    TMP DP  RH WIND       PRES   REMARKS
CEDAR RAPIDS   CLOUDY    47  37  68 N24G31    29.75R                  
CHARLES CITY * CLOUDY    46  39  76 NW24G30   29.80R                  
CLINTON *      CLOUDY    48  39  71 NW17      29.70R                  
DECORAH *        N/A     43  36  75 N12G18    29.76R                  
DUBUQUE        CLOUDY    46  38  73 NW20      29.70R                  
MONTICELLO *   CLOUDY    46  39  76 NW20G25   29.72S                  
OELWEIN *      CLOUDY    45  41  87 NW20G25   29.78R                  
WATERLOO       CLOUDY    49  37  63 N21       29.79R                  
$$
 
IAZ064-065-067-068-078-181800-
   EAST CENTRAL IOWA
  
CITY           SKY/WX    TMP DP  RH WIND       PRES   REMARKS
DAVENPORT      CLOUDY    45  39  79 NW21      29.73R                  
IOWA CITY      CLOUDY    48  37  65 NW22G32   29.77R                  
MT. PLEASANT * CLOUDY    50  41  71 NW15G22   29.76S                  
MUSCATINE *    CLOUDY    48  39  71 NW17G26   29.75S                  
QUAD CITIES    CLOUDY    49  39  68 NW20G28   29.71R                  
$$
 
IAZ062-063-075>077-085>089-095>099-181800-
   SOUTHEAST IOWA
  
CITY           SKY/WX    TMP DP  RH WIND       PRES   REMARKS
BURLINGTON     CLOUDY    47  38  71 NW16G28   29.74R                  
FAIRFIELD *    CLOUDY    48  37  66 NW24G31   29.77S                  
FORT MADISON * CLOUDY    46  41  81 NW16      29.77S                  
KEOKUK *       CLOUDY    48  39  71 NW15G28   29.77R                  
OSKALOOSA *    CLOUDY    49  36  62 N22       29.81S                  
CENTERVILLE *  PTSUNNY   48  41  76 NW18G25   29.82F                  
OTTUMWA        CLOUDY    48  38  68 NW24G31   29.80R                  
WASHINGTON *   CLOUDY    48  39  71 NW21G31   29.78R                  
$$

ABBREVIATIONS USED IN REMARKS
   TC - TEMPERATURES IN CELSIUS
  WCI - WIND CHILL INDEX
   HX - HEAT INDEX
  VSB - VISIBILITY  
$$